AirNav   Everest Fuels
 
 1128 users online  

4M1 Carroll County Airport
Berryville, Arkansas, USA

GOING TO BERRYVILLE?


FAA INFORMATION EFFECTIVE 10 SEPTEMBER 2020

Location

FAA Identifier: 4M1
Lat/Long: 36-22-52.8000N 093-37-28.4000W
36-22.880000N 093-37.473333W
36.3813333,-93.6245556
(estimated)
Elevation: 1205.5 ft. / 367.4 m (surveyed)
Variation: 02E (2010)
From city: 3 miles W of BERRYVILLE, AR
Time zone: UTC -5 (UTC -6 during Standard Time)
Zip code: 72616

Airport Operations

Airport use: Open to the public
Activation date: 05/1966
Control tower: no
ARTCC: MEMPHIS CENTER
FSS: JONESBORO FLIGHT SERVICE STATION
NOTAMs facility: JBR (NOTAM-D service available)
Attendance: MON-FRI 0800-1600
Wind indicator: lighted
Segmented circle: yes
Lights: ACTVT MIRL RY 07/25, TWY LGTS, REIL RYS 07 & 25 - CTAF.
Beacon: white-green (lighted land airport)
Operates sunset to sunrise.

Airport Communications

CTAF: 122.9
RAZORBACK APPROACH: 126.6
RAZORBACK DEPARTURE: 126.6
  • APCH/DEP SVC PRVDD BY MEMPHIS ARTCC ON FREQS 126.1/269.0 (FAYETTEVILLE RCAG) WHEN RAZORBACK APCH CTL CLSD.

Nearby radio navigation aids

VOR radial/distance  VOR name  Freq  Var
HROr277/20.2HARRISON VOR/DME112.5004E
RZCr067/25.3RAZORBACK VORTAC116.4004E

Airport Services

Fuel available: 100LL
FUEL AVBL 24 HR SELF SERVE WITH CREDIT CARD.
Parking: hangars and tiedowns
Airframe service: MAJOR
Powerplant service: MAJOR
Bottled oxygen: NONE
Bulk oxygen: NONE

Runway Information

Runway 7/25

Dimensions: 3554 x 75 ft. / 1083 x 23 m
Surface: asphalt, in excellent condition
Weight bearing capacity: 
Single wheel: 12.0
Runway edge lights: medium intensity
RUNWAY 7  RUNWAY 25
Latitude: 36-22.797025N36-22.964125N
Longitude: 093-37.819565W093-37.125405W
Elevation: 1166.6 ft.1204.9 ft.
Traffic pattern: leftleft
Runway heading: 071 magnetic, 073 true251 magnetic, 253 true
Markings: nonprecision, in fair conditionnonprecision, in fair condition
Visual slope indicator: 2-light PAPI on left (3.00 degrees glide path)2-light PAPI on left (4.00 degrees glide path)
Runway end identifier lights: yesyes
Touchdown point: yes, no lightsyes, no lights

Airport Ownership and Management from official FAA records

Ownership: Publicly-owned
Owner: CARROLL COUNTY
210 WEST CHURCH ST.
BERRYVILLE, AR 72616
Phone 870-423-2668
Manager: MICHAEL PFEIFER
518 COUNTY ROAD 308
BERRYVILLE, AR 72616
Phone 870-423-8393

Airport Operational Statistics

Aircraft based on the field: 34
Single engine airplanes: 32
Multi engine airplanes: 2
    
Aircraft operations: avg 50/day *
55% transient general aviation
44% local general aviation
1% military
* for 12-month period ending 31 August 2015

Additional Remarks

NO LINE OF SIGHT BTN RY ENDS.
ULTRALIGHT ACTIVITY ON & INVOF ARPT.
DEER ON & INVOF ARPT.
FOR CD CTC RAZORBACK APCH 479-649-2416, WHEN APCH CLSD CTC MEMPHIS ARTCC AT 901-368-8453.

Instrument Procedures

NOTE: All procedures below are presented as PDF files. If you need a reader for these files, you should download the free Adobe Reader.

NOT FOR NAVIGATION. Please procure official charts for flight.
FAA instrument procedures published for use from 10 September 2020 at 0901Z to 08 October 2020 at 0900z.

 
IAPs - Instrument Approach Procedures
RNAV (GPS) RWY 07   download (242KB)
RNAV (GPS) RWY 25   download (283KB)
NOTE: Special Take-Off Minimums/Departure Procedures apply   download (131KB)

Other nearby airports with instrument procedures:

H34 - Huntsville Municipal Airport (19 nm S)
KFWB - Branson West Municipal Airport - Emerson Field (22 nm NE)
KBBG - Branson Airport (22 nm NE)
94K - Cassville Municipal Airport (23 nm NW)
KROG - Rogers Executive Airport - Carter Field (23 nm W)
 
Loc | Ops | Rwys | IFR | FBO | Links
Com | Nav | Svcs | Stats | Notes

Branson Jet Center
AirBoss

 
Area around 4M1 (Carroll County Airport)
 
Road maps at: MapQuest Bing Google
 
Aerial photo
WARNING: Photo may not be current or correct
Aerial photo of 4M1 (Carroll County Airport)
Photo courtesy of the Arkansas Department of Aeronautics
Taken in the Spring of 2007

Do you have a better or more recent aerial photo of Carroll County Airport that you would like to share? If so, please send us your photo.

 
Sectional chart

 
Airport distance calculator
Flying to Carroll County Airport? Find the distance to fly.

From to 4M1

Sunrise and sunset
Times for 24-Sep-2020
 Local
(UTC-5)
 Zulu
(UTC)
Morning civil twilight06:4011:40
Sunrise07:0612:06
Sunset19:0700:07
Evening civil twilight19:3200:32

Current date and time
Zulu (UTC)  25-Sep-2020 00:11:42
Local (UTC-5)  24-Sep-2020 19:11:42
 
METAR
KFWB 
22nm NE 
242335Z AUTO 00000KT 10SM CLR 23/14 A2992 RMK AO2
KROG 
22nm W 
242358Z 14003KT 10SM CLR 23/13 A2992 RMK AO2 SLP122 6//// T02330128 10267 20222 58003
KBBG 
22nm NE 
242345Z 00000KT 10SM CLR 23/14 A2992
KHRO 
24nm E 
242353Z AUTO 00000KT 10SM CLR 21/13 A2992 RMK AO2 SLP123 T02060128 10256 20200 58001
KASG 
27nm SW 
242348Z 00000KT 10SM CLR 24/14 A2992
KVBT 
29nm W 
242356Z AUTO 13003KT 10SM CLR 23/13 A2993 RMK AO2 SLP130 6//// T02330133 10267 20233 58002 TSNO
KXNA 
33nm W 
242353Z 23003KT 10SM CLR 23/13 A2991 RMK AO2 SLP120 T02280128 10272 20228 58002
KFYV 
34nm SW 
242353Z 25004KT 10SM CLR 22/15 A2991 RMK AO2 SLP119 T02220150 10278 20222 53001
KHFJ 
37nm NW 
242355Z AUTO 25003KT 10SM CLR 24/13 A2990 RMK AO2
KSLG 
42nm W 
242356Z AUTO 22005KT 10SM CLR 22/16 A2992 RMK AO2 SLP125 T02220161 10261 20217 58001 TSNO
TAF
KROG 
22nm W 
241724Z 2418/2518 VRB03KT P6SM SKC TEMPO 2510/2514 1SM BR SCT002 FM251500 18006KT P6SM SKC
KBBG 
22nm NE 
241720Z 2418/2518 00000KT P6SM SKC FM250900 00000KT 4SM BR SKC TEMPO 2510/2512 2SM BR FM251400 VRB04KT P6SM SKC
KHRO 
24nm E 
241740Z 2418/2518 09005KT P6SM SCT030 FM250000 13003KT P6SM SKC FM250900 16003KT 3SM BR SCT008 TEMPO 2509/2513 1SM BR BKN008 FM251300 19005KT P6SM SKC
NOTAMs
Click for the latest NOTAMs
NOTAMs are issued by the DoD/FAA and will open in a separate window not controlled by AirNav.

 

 
 

FBO, Fuel Providers, and Aircraft Ground Support

  
 Business Name 
 
 Contact 
 
 Services / Description 
 
Fuel Prices
 
Comments
  
Carroll County Airport 870-423-8393
870-423-2120
[web site]
[email]

Like us on facebook
Airport management, Aviation fuel, Aircraft parking (ramp or tiedown), Hangars, Hangar leasing / sales, Passenger terminal and lounge, Flight training, ...

More info about Carroll County Airport
Shell
100LL
SS $3.72 
 Updated 14-Sep-2020
 
   3 read write
SS=Self service
Update Fuel Prices
 

Would you like to see your business listed on this page?

 If your business provides an interesting product or service to pilots, flight crews, aircraft, or users of the Carroll County Airport, you should consider listing it here.  To start the listing process, click on the button below
 
Add a business
 

Other Pages about Carroll County Airport

co.carroll.ar.us
Carroll County Airport
 
Update a link
 
Copyright © AirNav, LLC. All rights reserved. Privacy Policy  Contact